Location: Newark
(42.8481°N, 0.4872°E)
Time: 10:54:15
(UTC+00:00)

Explorer 7 - Pass Details

Date: 01 November 2020
Orbit: 484 x 678 km, 50.3° (Epoch: 03 December)

Event Time Altitude Azimuth Distance (km) Brightness Sun altitude
Rises 17:28:51 0° 300° (WNW) 2,584 11.0 -7.7°
Reaches altitude 10° 17:31:00 10° 302° (WNW) 1,717 10.1 -8.1°
Maximum altitude 17:34:53 80° 28° (NNE) 535 6.7 -8.8°
Drops below altitude 10° 17:38:59 10° 117° (ESE) 1,807 9.0 -9.5°
Enters shadow 17:39:42 - 118° (ESE) 2,092 9.3 -9.6°
